Regional Weather Roundup
Issued by NWS

Home | Current Version | Previous Version | Text Only | Print | Product List | Glossary On
Versions: 1 2 3 4 5 6 7 8 9 10 11 12 13 14 15 16 17 18 19 20 21 22 23 24 25 26 27 28 29 30 31 32 33 34 35 36 37 38 39 40 41 42 43 44 45 46 47 48 49 50
000
ASUS42 KTBW 051717
RWRFL
FLORIDA REGIONAL WEATHER ROUNDUP
NATIONAL WEATHER SERVICE TAMPA BAY RUSKIN FL
100 PM EDT TUE MAY 05 2015

NOTE: "FAIR" INDICATES FEW OR NO CLOUDS BELOW 12,000 FEET WITH NO
SIGNIFICANT WEATHER AND/OR OBSTRUCTIONS TO VISIBILITY.


FLZ001>010-012>015-112-114-115-051800-
PANHANDLE FLORIDA

CITY           SKY/WX    TMP DP  RH WIND       PRES   REMARKS
PENSACOLA      SUNNY     78  58  49 SE13      30.21F
PENSACOLA NAS  MOSUNNY   78  61  55 SE16      30.21F
MILTON NAS     MOSUNNY   80  56  43 E13       30.21
CRESTVIEW      SUNNY     83  55  38 NE14      30.23F
DUKE FIELD     MOSUNNY   81  53  37 E10G18    30.20F
VALPARAISO     MOSUNNY   79  59  49 SE14      30.21F
MARY ESTHER    MOSUNNY   79  58  48 SE13G20   30.20F
PANAMA CITY    FAIR      80  56  43 E8        30.19F
TYNDALL AFB    SUNNY     80  58  47 E10       30.20F
APALACHICOLA   MOSUNNY   82  61  48 E13G23    30.21S

STATION/POSITION SKY/WX   TEMP    WIND        PRES    WAVE   SWELL
                          AIR SEA DIR/SP/G            HT/PER HT/PER
                          (F)     (DEG/KT/KT) (MB)    (FT/S) (FT/S)
30.1N   87.6W              72 74   80/ 16/ 17 1022.3R   5/ 7   2/13
29.2N   88.2W              74 76  100/ 16/ 19 1022.3S   6/ 8   3/ 8
28.8N   86.0W              73 76   80/ 17/ 19 1022.1S   5/ 6
PANAMA CITY BEAC           76 75   90/  9/ 18 1023.1F
CAPE SAN BLAS    NOT AVBL
TOWER C                    72      70/ 19/ 21 1022.5F
28.5N   84.5W              74 74   90/ 14/ 17 1021.6F   4/ 5

$$
FLZ011-016>038-118-127-128-134-139-239-051800-
NORTH FLORIDA

CITY           SKY/WX    TMP DP  RH WIND       PRES   REMARKS
MARIANNA       SUNNY     80  58  46 E10       30.22F
TALLAHASSEE    PTSUNNY   83  56  39 E15G22    30.22F
PERRY          CLOUDY    78  62  56 E10       30.22F
CROSS CITY       N/A     76  65  68 VRB3      30.21F
LAKE CITY      CLOUDY    75  63  64 E7        30.23F
GAINESVILLE    LGT RAIN  72  66  81 SE6G20    30.21F
MAYPORT NAS    PTSUNNY   77  66  68 NE14      30.25S
JACKSONVILLE   PTSUNNY   79  61  53 E16G25    30.24F
JAX NAS        PTSUNNY   81  61  50 E20       30.23F
JAX CRAIG      CLOUDY    78  61  55 E15       30.24F
JAX CECIL      PTSUNNY   73  64  73 E13       30.24F
FERNANDINA BEA FAIR      82  66  57 NE16      30.24F
ST AUGUSTINE   CLOUDY    76  66  71 E14       30.24F

STATION/POSITION SKY/WX   TEMP    WIND        PRES    WAVE   SWELL
                          AIR SEA DIR/SP/G            HT/PER HT/PER
                          (F)     (DEG/KT/KT) (MB)    (FT/S) (FT/S)
SHELL POINT                77      80/  5/ 12   N/A
KEATON BEACH               75      80/ 16/ 19 1023.1F
CEDAR KEY                  75      80/ 10/ 11 1022.5F
FERNANDINA                 76 73   40/  9/ 15 1024.2F
30.7N   81.3W                 73                N/A     4/ 6   2/13
MAYPORT                    73 72   50/ 13/ 16 1024.6F
31.4N   80.9W              71 70   50/ 12/ 14 1025.7F   3/ 7   2/ 7
ST AUGUSTINE               73 72   80/  9/ 10 1024.4F

$$
FLZ040-043>046-052-053-057-058-063-144-051800-
INTERIOR CENTRAL FLORIDA

CITY           SKY/WX    TMP DP  RH WIND       PRES   REMARKS
OCALA          PTSUNNY   81  63  54 E12       30.19F
THE VILLAGES     N/A     81  64  57 NE8G16    30.09S
LEESBURG       MOSUNNY   83  62  49 E15       30.19F
SANFORD        CLOUDY    81  64  56 E15       30.19F
ORLANDO EXEC   PTSUNNY   80  63  55 E17G23    30.18F
ORLANDO INTL   CLOUDY    81  64  56 E16       30.18S
KISSIMMEE      CLOUDY    79  66  65 E13G18    30.18S
WINTER HAVEN   PTSUNNY   82  64  54 E13       30.18F
LAKELAND       PTSUNNY   81  63  54 MISG      30.17F
OKEECHOBEE     CLOUDY    77  64  65 E9G17     30.14F

$$
FLZ041-047-054-059-064-141-147-051800-
EAST CENTRAL FLORIDA

CITY           SKY/WX    TMP DP  RH WIND       PRES   REMARKS
ORMOND BEACH   MOSUNNY   77  64  65 E13G18    30.21F
DAYTONA BEACH  CLOUDY    77  64  64 NE15      30.21F
DELAND           N/A     79  63  57 E16       30.21F
JFK SPACE CTR  CLOUDY    78  65  64 E10       30.17F
TITUSVILLE     PTSUNNY   79  66  65 E17       30.19F
CAPE CANAVERAL CLOUDY    77  67  69 NE12      30.17S
PATRICK AFB    CLOUDY    79  65  62 NE12      30.16F
MELBOURNE      CLOUDY    78  64  61 E14       30.17S
VERO BEACH     CLOUDY    79  66  64 NE14      30.15F
FT PIERCE      LGT RAIN  74  70  87 NE10      30.14F FOG
STUART         PTSUNNY   75  68  78 E9        30.15S

STATION/POSITION SKY/WX   TEMP    WIND        PRES    WAVE   SWELL
                          AIR SEA DIR/SP/G            HT/PER HT/PER
                          (F)     (DEG/KT/KT) (MB)    (FT/S) (FT/S)
28.5N   80.2W              76 78   70/ 14/ 17 1022.0R
28.9N   78.5W              75 78   90/ 19/ 23 1021.8F
TRIDENT PIER               78 77   60/ 11/ 14 1022.6F
28.4N   80.5W                 76                N/A     4/ 7
27.5N   80.2W                 77                N/A     6/ 8   2/11

$$
FLZ050-056-061-142-242-148-248-149-249-151-251-155-255-
160-260-051800-
WEST CENTRAL FLORIDA

CITY           SKY/WX    TMP DP  RH WIND       PRES   REMARKS
CRYSTAL RIVER  PTSUNNY   82  61  47 E13       30.17F
INVERNESS      PTSUNNY  N/A N/A N/A E12       30.18F
BROOKSVILLE    MOSUNNY   81  61  50 E10G21    30.17F
CLEARWATER     MOSUNNY   83  66  56 E12       30.14F
TAMPA INTL     PTSUNNY   82  62  50 NE12G17   30.15F
TAMPA EXEC     MOSUNNY   84  63  48 E16G24    30.16F
PLANT CITY     MOSUNNY   81  64  57 E15G21    30.18S
MACDILL AFB    PTSUNNY   83  67  58 E18       30.14F
PETER O KNIGHT MOSUNNY   86  63  45 E18       30.15F
ST PETERSBURG  MOSUNNY   81  67  62 E15       30.13F
SARASOTA       PTSUNNY   83  62  49 E18G28    30.11F
VENICE         FAIR      82  61  47 E18G25    30.12F

STATION/POSITION SKY/WX   TEMP    WIND        PRES    WAVE   SWELL
                          AIR SEA DIR/SP/G            HT/PER HT/PER
                          (F)     (DEG/KT/KT) (MB)    (FT/S) (FT/S)
CEDAR KEY                  75      80/ 10/ 11 1022.5F
28.5N   84.5W              74 74   90/ 14/ 17 1021.6F   4/ 5
27.3N   84.2W                 77                N/A     4/ 6
CLEARWATER BEACH           79 76   90/ 11/ 16 1021.0F
MIDDLE TAMPA BAY           78     100/ 14/ 17 1020.9F
VENICE                     81 78   80/ 13/ 18 1019.4F

$$
FLZ066-069-070-075>078-162-262-165-265-051800-
SOUTHWEST FLORIDA AND KEYS

CITY           SKY/WX    TMP DP  RH WIND       PRES   REMARKS
PUNTA GORDA    PTSUNNY   81  64  56 E17       30.14F
FT MYERS       PTSUNNY   79  67  66 E13G18    30.11F
SOUTHWEST INTL CLOUDY    78  66  66 E15       30.12F
NAPLES         CLOUDY    80  68  66 E16       30.10F
MARCO ISLAND   MOSUNNY   79  66  65 E15       30.10F
IMMOKALEE      MOSUNNY  N/A N/A N/A E12       30.13S
MARATHON       CLOUDY    77  69  76 NE14      30.09S
KEY WEST NAS   LGT RAIN  75  69  81 E10       30.09S
KEY WEST INTL  CLOUDY    76  69  79 E12       30.10R

STATION/POSITION SKY/WX   TEMP    WIND        PRES    WAVE   SWELL
                          AIR SEA DIR/SP/G            HT/PER HT/PER
                          (F)     (DEG/KT/KT) (MB)    (FT/S) (FT/S)
VENICE                     81 78   80/ 13/ 18 1019.4F
NAPLES                     77 77   70/  8/ 12 1019.4F
26.0N   85.6W              76 81   80/ 14/ 17 1019.4F   7/ 7   5/ 7
DRY TORTUGAS               77     100/ 16/ 17 1018.6S
NW FL BAY                  72      80/ 11/ 14 1019.7
SAND KEY                   76      80/ 18/ 21 1018.8R
SOMBRERO KEY               74      60/ 17/ 18 1019.2S
LONG KEY                   73 75   40/ 15/ 17 1019.7F
MOLASSES REEF              74 79   50/ 19/ 22 1018.6F

$$
FLZ067-068-071>074-168-172>174-051800-
SOUTHEAST FLORIDA

CITY           SKY/WX    TMP DP  RH WIND       PRES   REMARKS
W PALM BEACH   CLOUDY    76  65  68 NE14      30.14R
FT LAUDER-EXEC LGT RAIN  73  69  87 SE5       30.12S
FT LAUDERDALE  LGT RAIN  74  69  85 E3        30.11S
POMPANO BEACH  LGT RAIN  75  69  81 E5        30.12S
PEMBROKE PINES LGT RAIN  73  67  81 CALM      30.13S
OPA LOCKA      LGT RAIN  73  66  78 CALM      30.12F
MIAMI          LGT RAIN  74  66  76 CALM      30.11F
WEST KENDALL   LGT RAIN  73  69  87 NE8       30.11F
HOMESTEAD      LGT RAIN  72  68  88 NE7       30.10F

STATION/POSITION SKY/WX   TEMP    WIND        PRES    WAVE   SWELL
                          AIR SEA DIR/SP/G            HT/PER HT/PER
                          (F)     (DEG/KT/KT) (MB)    (FT/S) (FT/S)
PORT EVERGLADES            74      90/  2/  3 1019.8R
VIRGINIA KEY               73 76   40/  4/  7 1019.4R
LAKE WORTH                 75 77   90/  9/ 11 1019.4R
SETTLEMENT POINT           72      60/ 15/ 17 1020.5F

$$




USA.gov is the U.S. government's official web portal to all federal, state and local government web resources and services.